When you browse on this site, cookies collect data to enhance your experience and personalize the content and advertising you see.
Visit our Privacy Policy to learn more. By continuing to use the site, you agree to this use of cookies and data.
  • In Österreich
  • Länderverzeichnis
  • Für 7 Tage
  • Wassertemperatur
  • Satellitenkarten
  • Wetterkarte
  • News
  • Widgets
  • user-avatar
    Anmelden

    Stündliche Wetter Saga

    Heute, 19 Juli, Freitag

    Zeit Temperatur Niederschläge Wind Luftdruck Luftfeuchtigkeit
    00:00 +28°C° 0.4 mm 1 m/S 757 mmHg 82%
    01:00 +28°C° 1.1 mm 1 m/S 756 mmHg 83%
    02:00 +27°C° 1.1 mm 2 m/S 756 mmHg 84%
    03:00 +27°C° 0 mm 3 m/S 755 mmHg 84%
    04:00 +27°C° 1.5 mm 3 m/S 755 mmHg 86%
    05:00 +27°C° 1.5 mm 3 m/S 755 mmHg 87%
    06:00 +27°C° 1.5 mm 3 m/S 756 mmHg 89%
    07:00 +27°C° 0.3 mm 3 m/S 755 mmHg 88%
    08:00 +27°C° 0.3 mm 2 m/S 755 mmHg 86%
    09:00 +28°C° 0 mm 2 m/S 755 mmHg 86%
    10:00 +29°C° 0.1 mm 2 m/S 755 mmHg 82%
    11:00 +29°C° 0.1 mm 2 m/S 755 mmHg 78%
    12:00 +30°C° 0.1 mm 2 m/S 756 mmHg 74%
    13:00 +30°C° 0.2 mm 2 m/S 755 mmHg 74%
    14:00 +30°C° 0.2 mm 2 m/S 755 mmHg 75%
    15:00 +31°C° 0 mm 2 m/S 755 mmHg 73%
    16:00 +31°C° 0.2 mm 2 m/S 755 mmHg 71%
    17:00 +31°C° 0.2 mm 3 m/S 755 mmHg 69%
    18:00 +31°C° 0.2 mm 3 m/S 755 mmHg 68%
    19:00 +31°C° 0.2 mm 3 m/S 755 mmHg 69%
    20:00 +30°C° 0.2 mm 3 m/S 755 mmHg 71%
    21:00 +30°C° 0 mm 4 m/S 755 mmHg 74%
    22:00 +29°C° 0.5 mm 4 m/S 755 mmHg 75%
    23:00 +29°C° 0.5 mm 4 m/S 754 mmHg 76%

    Morgen, 20 Juli, Samstag

    Zeit Temperatur Niederschläge Wind Luftdruck Luftfeuchtigkeit
    00:00 +29°C° 0.5 mm 5 m/S 754 mmHg 77%
    01:00 +29°C° 0.6 mm 5 m/S 754 mmHg 77%
    02:00 +29°C° 0.6 mm 5 m/S 753 mmHg 78%
    03:00 +29°C° 0.6 mm 5 m/S 753 mmHg 79%
    04:00 +29°C° 0.3 mm 6 m/S 753 mmHg 78%
    05:00 +29°C° 0.3 mm 6 m/S 752 mmHg 77%
    06:00 +29°C° 0.3 mm 6 m/S 752 mmHg 77%
    07:00 +29°C° 0.3 mm 7 m/S 752 mmHg 76%
    08:00 +31°C° 0.3 mm 8 m/S 752 mmHg 74%
    09:00 +31°C° 0.3 mm 8 m/S 753 mmHg 73%
    10:00 +31°C° 0.8 mm 8 m/S 753 mmHg 73%
    11:00 +31°C° 0.8 mm 8 m/S 753 mmHg 73%
    12:00 +32°C° 0.8 mm 8 m/S 753 mmHg 73%
    13:00 +32°C° 0.5 mm 8 m/S 753 mmHg 71%
    14:00 +32°C° 0.5 mm 8 m/S 752 mmHg 69%
    15:00 +33°C° 0.5 mm 8 m/S 752 mmHg 67%
    16:00 +32°C° 2 mm 8 m/S 752 mmHg 73%
    17:00 +30°C° 2 mm 7 m/S 752 mmHg 78%
    18:00 +29°C° 2 mm 7 m/S 752 mmHg 84%
    19:00 +29°C° 2.2 mm 6 m/S 752 mmHg 84%
    20:00 +29°C° 2.2 mm 6 m/S 753 mmHg 84%
    21:00 +29°C° 2.2 mm 6 m/S 753 mmHg 84%
    22:00 +29°C° 1.2 mm 6 m/S 753 mmHg 84%
    23:00 +29°C° 1.2 mm 6 m/S 753 mmHg 84%

    übermorgen, 21 Juli, Sonntag

    Zeit Temperatur Niederschläge Wind Luftdruck Luftfeuchtigkeit
    00:00 +29°C° 1.2 mm 5 m/S 754 mmHg 84%
    01:00 +28°C° 1.1 mm 5 m/S 754 mmHg 85%
    02:00 +28°C° 1.1 mm 5 m/S 754 mmHg 85%
    03:00 +28°C° 1.1 mm 4 m/S 754 mmHg 85%
    04:00 +28°C° 0.9 mm 4 m/S 754 mmHg 85%
    05:00 +28°C° 0.9 mm 4 m/S 754 mmHg 86%
    06:00 +28°C° 0.9 mm 3 m/S 754 mmHg 86%
    07:00 +29°C° 0.8 mm 4 m/S 754 mmHg 82%
    08:00 +30°C° 0.8 mm 5 m/S 755 mmHg 78%
    09:00 +32°C° 0.8 mm 5 m/S 755 mmHg 74%
    10:00 +32°C° 1.1 mm 5 m/S 755 mmHg 72%
    11:00 +33°C° 1.1 mm 6 m/S 755 mmHg 71%
    12:00 +33°C° 1.1 mm 6 m/S 755 mmHg 69%
    13:00 +33°C° 1.4 mm 6 m/S 755 mmHg 70%
    14:00 +33°C° 1.4 mm 6 m/S 755 mmHg 70%
    15:00 +33°C° 1.4 mm 6 m/S 754 mmHg 71%
    16:00 +32°C° 1.1 mm 5 m/S 755 mmHg 73%
    17:00 +32°C° 1.1 mm 5 m/S 755 mmHg 75%
    18:00 +30°C° 1.1 mm 4 m/S 755 mmHg 76%
    19:00 +30°C° 0.6 mm 4 m/S 755 mmHg 78%
    20:00 +29°C° 0.6 mm 3 m/S 755 mmHg 81%
    21:00 +29°C° 0.6 mm 3 m/S 756 mmHg 83%
    22:00 +29°C° 0.1 mm 3 m/S 756 mmHg 83%
    23:00 +28°C° 0.1 mm 3 m/S 756 mmHg 84%

    22 Juli, Montag

    Zeit Temperatur Niederschläge Wind Luftdruck Luftfeuchtigkeit
    00:00 +28°C° 0.1 mm 2 m/S 756 mmHg 84%
    01:00 +28°C° 0 mm 2 m/S 756 mmHg 84%
    02:00 +28°C° 0 mm 2 m/S 756 mmHg 85%
    03:00 +28°C° 0 mm 2 m/S 755 mmHg 85%
    04:00 +28°C° 0 mm 2 m/S 755 mmHg 85%
    05:00 +28°C° 0 mm 2 m/S 755 mmHg 85%
    06:00 +28°C° 0 mm 1 m/S 755 mmHg 85%
    07:00 +29°C° 0 mm 2 m/S 755 mmHg 80%
    08:00 +30°C° 0 mm 2 m/S 756 mmHg 75%
    09:00 +31°C° 0 mm 2 m/S 756 mmHg 70%
    10:00 +33°C° 0.3 mm 3 m/S 756 mmHg 69%
    11:00 +33°C° 0.3 mm 4 m/S 755 mmHg 68%
    12:00 +33°C° 0.3 mm 4 m/S 755 mmHg 66%
    13:00 +33°C° 0.6 mm 4 m/S 755 mmHg 68%
    14:00 +33°C° 0.6 mm 4 m/S 755 mmHg 69%
    15:00 +32°C° 0.6 mm 5 m/S 755 mmHg 71%
    16:00 +32°C° 0.4 mm 4 m/S 755 mmHg 72%
    17:00 +32°C° 0.4 mm 4 m/S 755 mmHg 73%
    18:00 +30°C° 0.4 mm 4 m/S 755 mmHg 74%
    19:00 +30°C° 0.2 mm 4 m/S 755 mmHg 76%
    20:00 +29°C° 0.2 mm 3 m/S 755 mmHg 78%
    21:00 +29°C° 0.2 mm 3 m/S 756 mmHg 79%
    22:00 +29°C° 0 mm 2 m/S 756 mmHg 81%
    23:00 +28°C° 0 mm 2 m/S 756 mmHg 82%

    23 Juli, Dienstag

    Zeit Temperatur Niederschläge Wind Luftdruck Luftfeuchtigkeit
    00:00 +28°C° 0 mm 2 m/S 756 mmHg 83%
    01:00 +28°C° 0 mm 2 m/S 755 mmHg 84%
    02:00 +28°C° 0 mm 2 m/S 755 mmHg 84%
    03:00 +28°C° 0 mm 2 m/S 755 mmHg 85%
    04:00 +28°C° 0 mm 1 m/S 755 mmHg 85%
    05:00 +28°C° 0 mm 1 m/S 755 mmHg 85%
    06:00 +28°C° 0 mm 1 m/S 755 mmHg 85%
    07:00 +28°C° 0 mm 1 m/S 755 mmHg 81%
    08:00 +29°C° 0 mm 2 m/S 755 mmHg 78%
    09:00 +30°C° 0 mm 2 m/S 755 mmHg 75%
    10:00 +30°C° 0 mm 2 m/S 755 mmHg 72%
    11:00 +31°C° 0 mm 2 m/S 755 mmHg 69%
    12:00 +31°C° 0 mm 2 m/S 755 mmHg 65%
    13:00 +33°C° 0 mm 3 m/S 755 mmHg 64%
    14:00 +33°C° 0 mm 3 m/S 754 mmHg 63%
    15:00 +34°C° 0 mm 3 m/S 754 mmHg 62%
    16:00 +33°C° 0 mm 3 m/S 754 mmHg 65%
    17:00 +33°C° 0 mm 3 m/S 754 mmHg 67%
    18:00 +31°C° 0 mm 3 m/S 754 mmHg 70%
    19:00 +30°C° 0 mm 3 m/S 754 mmHg 73%
    20:00 +30°C° 0 mm 3 m/S 754 mmHg 76%
    21:00 +29°C° 0 mm 2 m/S 755 mmHg 80%
    22:00 +29°C° 0 mm 2 m/S 754 mmHg 81%
    23:00 +28°C° 0 mm 2 m/S 754 mmHg 83%

    24 Juli, Mittwoch

    Zeit Temperatur Niederschläge Wind Luftdruck Luftfeuchtigkeit
    00:00 +28°C° 0 mm 2 m/S 754 mmHg 84%
    01:00 +28°C° 0 mm 2 m/S 754 mmHg 85%
    02:00 +28°C° 0 mm 2 m/S 754 mmHg 86%
    03:00 +28°C° 0 mm 2 m/S 754 mmHg 87%
    04:00 +28°C° 0.1 mm 2 m/S 754 mmHg 87%
    05:00 +28°C° 0.1 mm 2 m/S 754 mmHg 87%
    06:00 +28°C° 0.1 mm 2 m/S 754 mmHg 86%
    07:00 +29°C° 0 mm 3 m/S 754 mmHg 82%
    08:00 +29°C° 0 mm 3 m/S 755 mmHg 78%
    09:00 +30°C° 0 mm 3 m/S 755 mmHg 74%
    10:00 +32°C° 0 mm 4 m/S 754 mmHg 71%
    11:00 +33°C° 0 mm 4 m/S 754 mmHg 67%
    12:00 +33°C° 0 mm 5 m/S 754 mmHg 64%
    13:00 +34°C° 0 mm 5 m/S 754 mmHg 63%
    14:00 +34°C° 0 mm 6 m/S 754 mmHg 62%
    15:00 +34°C° 0 mm 6 m/S 754 mmHg 62%
    16:00 +33°C° 0 mm 6 m/S 754 mmHg 65%
    17:00 +33°C° 0 mm 6 m/S 754 mmHg 68%
    18:00 +32°C° 0 mm 5 m/S 754 mmHg 72%
    19:00 +30°C° 0 mm 5 m/S 754 mmHg 75%
    20:00 +30°C° 0 mm 4 m/S 754 mmHg 79%
    21:00 +29°C° 0 mm 4 m/S 754 mmHg 82%
    22:00 +29°C° 0.1 mm 4 m/S 754 mmHg 84%
    23:00 +29°C° 0.1 mm 4 m/S 754 mmHg 85%
    Mehr zeigen